Location: Broekland
(52.3610°N, 6.2005°E)
Time: 08:50:41
(UTC+00:00)

Tiangong - Visible Passes

Search period start: 20 January 2026 00:00
Search period end: 30 January 2026 00:00
Orbit: 378 x 393 km, 41.5° (Epoch: 19 January)

Date Brightness Start Highest point End Pass type
(mag) Time Alt. Az. Time Alt. Az. Time Alt. Az.
20 Jan 0.8 06:27:18 10° SSW 06:28:30 12° S 06:29:41 10° SSE visible
21 Jan 0.9 05:29:07 10° S 05:29:24 10° SSE 05:29:42 10° SSE visible
22 Jan 0.6 06:04:53 10° SSW 06:06:15 12° S 06:07:37 10° SSE visible
23 Jan 0.6 05:06:56 12° S 05:07:04 12° S 05:08:14 10° SSE visible
23 Jan 0.7 06:42:20 10° SSW 06:43:04 11° S 06:43:46 10° S visible
24 Jan 0.5 05:42:37 10° SSW 05:43:51 12° S 05:45:06 10° SSE visible
25 Jan 0.9 04:45:48 10° SSE 04:45:48 10° SSE 04:45:57 10° SSE visible
26 Jan 0.6 05:21:16 10° SSW 05:21:18 10° S 05:21:54 10° S visible
